Location: ActonStarParty
(42.4766°N, 71.4538°W)
Time: 09:24:08
(UTC-04:00)

ATLAS 5 CENTAUR R/B - Visible Passes

Search period start: 31 July 2015 00:00
Search period end: 10 August 2015 00:00
Orbit: 315 x 14880 km, 60.8° (Epoch: 18 July)

Date Brightness Start Highest point End Pass type
(mag) Time Alt. Az. Time Alt. Az. Time Alt. Az.
31 Jul 6.1 03:12:50 10° NW 04:29:53 71° WSW 04:42:10 10° SSE visible
31 Jul 7.8 19:29:34 10° SW 21:31:23 71° NNW 22:39:59 10° ENE visible
01 Aug 6.4 01:34:16 10° WNW 03:15:54 85° NE 03:30:29 10° SE visible
01 Aug 8.0 18:14:27 10° SSW 19:56:09 86° NW 21:23:57 10° NE visible
01 Aug 6.7 23:49:52 10° WNW 01:58:08 69° NNE 02:17:39 10° ESE visible
02 Aug 7.1 22:11:27 10° W 00:35:21 62° N 01:03:43 10° E visible
03 Aug 5.9 04:39:43 10° NW 05:32:38 40° W 05:44:16 10° SSW visible
03 Aug 7.4 20:43:34 10° WSW 23:05:47 61° N 23:48:48 10° ENE visible
04 Aug 6.0 03:09:40 10° NW 04:22:07 64° WSW 04:34:15 10° S visible
04 Aug 7.7 19:22:56 10° SW 21:29:21 69° NNW 22:33:06 10° ENE visible
05 Aug 6.2 01:32:56 10° NW 03:08:45 89° SW 03:22:42 10° SE visible
05 Aug 7.9 18:06:46 10° SSW 19:52:24 82° NW 21:16:54 10° NE visible
05 Aug 6.6 23:49:01 10° WNW 01:51:47 72° NNE 02:09:57 10° ESE visible
06 Aug 6.9 22:08:10 10° W 00:30:05 63° NNE 00:56:03 10° E visible
07 Aug 5.9 04:34:29 10° NW 05:23:30 35° W 05:35:11 10° SW visible
07 Aug 7.3 20:37:52 10° WSW 23:01:55 61° N 23:41:08 10° E visible
08 Aug 5.9 03:05:06 10° NW 04:13:23 58° WSW 04:25:28 10° S visible
08 Aug 7.6 19:15:40 10° SW 21:26:17 66° NNW 22:25:22 10° ENE visible
09 Aug 6.1 01:29:57 10° NW 03:00:34 83° WSW 03:14:03 10° SSE visible
09 Aug 7.8 17:58:25 10° SSW 19:48:06 78° NW 21:09:00 10° NE visible
